N3WGC-14 Weather Reports


Display with metric or nautical units.
time (UTC)temp
F
wind
direction
speed
MPH
gust
MPH
rain 1hr
in
rain 24hr
in
rain mn
in
humidity
%
barometer
mb
20260504090130 56 238 2.0 3.0 0.00 0.00 0.00 76 1015.7
20260504081629 55 272 0.0 1.0 0.00 0.00 0.00 79 1015.7
20260504081128 55 215 1.0 2.0 0.00 0.00 0.00 78 1015.7
20260504080628 55 228 0.0 0.0 0.00 0.00 0.00 77 1015.8
20260504080128 55 219 2.0 3.0 0.00 0.00 0.00 77 1015.8
20260504070126 55 244 3.0 5.0 0.00 0.00 0.00 73 1015.9
20260504060125 54 30 0.0 0.0 0.00 0.00 0.00 72 1015.9
20260504050623 54 53 0.0 1.0 0.00 0.00 0.00 72 1015.7
20260504050123 54 53 0.0 1.0 0.00 0.00 0.00 71 1015.8
20260504045623 54 224 0.0 1.0 0.00 0.00 0.00 71 1015.9
20260504045123 54 224 0.0 0.0 0.00 0.00 0.00 72 1016.0
20260504044622 54 274 2.0 3.0 0.00 0.00 0.00 72 1016.0
20260504044122 53 8 0.0 2.0 0.00 0.00 0.00 72 1015.9
20260504043622 52 252 0.0 3.0 0.00 0.00 0.00 75 1016.0
20260504043122 52 224 0.0 1.0 0.00 0.00 0.00 77 1016.0
20260504042622 52 225 0.0 1.0 0.00 0.00 0.00 78 1015.9
20260504042122 52 323 0.0 0.0 0.00 0.00 0.00 78 1015.8
20260504041621 52 323 0.0 1.0 0.00 0.00 0.00 77 1015.7
20260504041121 51 323 0.0 0.0 0.00 0.00 0.00 77 1015.7
20260504040621 51 97 0.0 1.0 0.00 0.00 0.00 77 1015.8
20260504040121 51 97 0.0 1.0 0.00 0.00 0.00 78 1015.7
20260504035621 50 97 0.0 1.0 0.00 0.00 0.00 80 1015.6
20260504035121 49 97 0.0 0.0 0.00 0.00 0.00 81 1015.6
20260504034620 50 82 0.0 1.0 0.00 0.00 0.00 79 1015.5
20260504034120 49 82 1.0 2.0 0.00 0.00 0.00 81 1015.5
20260504033620 49 82 0.0 0.0 0.00 0.00 0.00 82 1015.5
20260504033120 48 195 0.0 0.0 0.00 0.00 0.00 83 1015.4
20260504032620 48 197 0.0 0.0 0.00 0.00 0.00 83 1015.4
20260504032120 48 215 0.0 0.0 0.00 0.00 0.00 84 1015.3
20260504031620 48 215 0.0 1.0 0.00 0.00 0.00 83 1015.3
20260504031119 47 215 0.0 0.0 0.00 0.00 0.00 84 1015.3
20260504030619 47 259 0.0 1.0 0.00 0.00 0.00 82 1015.3
20260504030119 47 259 0.0 1.0 0.00 0.00 0.00 82 1015.3
20260504025619 47 259 0.0 1.0 0.00 0.00 0.00 82 1015.3
20260504025119 47 259 0.0 1.0 0.00 0.00 0.00 82 1015.3
20260504024619 47 259 0.0 0.0 0.00 0.00 0.00 81 1015.3
20260504024119 47 259 0.0 0.0 0.00 0.00 0.00 79 1015.3
20260504023548 47 259 0.0 0.0 0.00 0.00 0.00 78 1015.2
20260504023048 47 259 0.0 0.0 0.00 0.00 0.00 77 1015.3
20260504022548 48 259 0.0 0.0 0.00 0.00 0.00 76 1015.3
20260504022048 48 259 0.0 1.0 0.00 0.00 0.00 77 1015.2
20260504021548 48 259 0.0 1.0 0.00 0.00 0.00 76 1015.3
20260504021048 48 259 1.0 2.0 0.00 0.00 0.00 75 1015.2
20260504020547 48 259 0.0 1.0 0.00 0.00 0.00 75 1015.2
20260504020047 48 259 0.0 0.0 0.00 0.00 0.00 75 1015.2
20260504015547 49 259 0.0 0.0 0.00 0.00 0.00 77 1015.2
20260504015047 49 259 0.0 1.0 0.00 0.00 0.00 75 1015.1
20260504014547 49 259 1.0 1.0 0.00 0.00 0.00 75 1015.1
20260504014047 49 259 0.0 1.0 0.00 0.00 0.00 75 1015.1
20260504013547 50 259 0.0 1.0 0.00 0.00 0.00 75 1015.1
20260504013046 50 259 0.0 1.0 0.00 0.00 0.00 74 1015.0
20260504012546 51 259 1.0 1.0 0.00 0.00 0.00 74 1015.0
20260504012046 51 259 0.0 1.0 0.00 0.00 0.00 72 1015.0
20260504011546 52 259 0.0 1.0 0.00 0.00 0.00 70 1014.9
20260504011046 53 259 0.0 0.0 0.00 0.00 0.00 68 1014.9
20260504010546 54 259 0.0 1.0 0.00 0.00 0.00 66 1014.9
20260504010045 55 259 1.0 1.0 0.00 0.00 0.00 64 1014.9
20260504005545 56 259 0.0 3.0 0.00 0.00 0.00 63 1014.8
20260504005045 57 262 0.0 1.0 0.00 0.00 0.00 64 1014.7
20260504004545 57 264 0.0 0.0 0.00 0.00 0.00 64 1014.7
20260504004045 57 257 0.0 1.0 0.00 0.00 0.00 61 1014.6
20260504003545 57 257 1.0 2.0 0.00 0.00 0.00 60 1014.6
20260504003045 57 259 0.0 1.0 0.00 0.00 0.00 58 1014.6
20260504002544 58 260 0.0 0.0 0.00 0.00 0.00 57 1014.5
20260504002044 58 265 0.0 1.0 0.00 0.00 0.00 56 1014.4
20260504001544 58 270 0.0 0.0 0.00 0.00 0.00 56 1014.4
20260504001044 59 270 0.0 1.0 0.00 0.00 0.00 56 1014.3
20260504000544 59 271 2.0 2.0 0.00 0.00 0.00 56 1014.3
20260504000044 59 259 2.0 3.0 0.00 0.00 0.00 54 1014.3
20260503235543 59 261 1.0 2.0 0.00 0.00 0.00 51 1014.2
20260503235043 60 261 1.0 2.0 0.00 0.00 0.00 49 1014.1
20260503234543 60 270 1.0 2.0 0.00 0.00 0.00 48 1014.1
20260503234043 61 270 1.0 2.0 0.00 0.00 0.00 47 1014.0
20260503233513 61 305 2.0 3.0 0.00 0.00 0.00 48 1013.9
20260503233013 61 267 5.0 7.0 0.00 0.00 0.00 47 1013.9
20260503232513 61 265 1.0 3.0 0.00 0.00 0.00 45 1013.9
20260503232012 62 268 2.0 3.0 0.00 0.00 0.00 45 1013.9
20260503231512 62 269 3.0 5.0 0.00 0.00 0.00 42 1013.9
20260503231012 62 269 3.0 6.0 0.00 0.00 0.00 43 1014.0
20260503230512 62 279 5.0 5.0 0.00 0.00 0.00 44 1013.9
20260503230012 62 294 5.0 9.0 0.00 0.00 0.00 43 1013.9
20260503225512 62 284 3.0 3.0 0.00 0.00 0.00 45 1014.0
20260503225012 62 273 3.0 3.0 0.00 0.00 0.00 44 1014.0
20260503224511 62 269 3.0 6.0 0.00 0.00 0.00 42 1014.0
20260503224011 62 269 5.0 7.0 0.00 0.00 0.00 42 1014.0
20260503223511 62 281 5.0 3.0 0.00 0.00 0.00 43 1013.9
20260503223011 62 264 3.0 7.0 0.00 0.00 0.00 41 1013.9
20260503222511 62 276 3.0 3.0 0.00 0.00 0.00 42 1013.9
20260503222011 62 272 5.0 9.0 0.00 0.00 0.00 42 1014.0
20260503221510 62 278 5.0 7.0 0.00 0.00 0.00 42 1014.1
20260503221010 62 269 5.0 6.0 0.00 0.00 0.00 43 1014.1
20260503220510 62 260 3.0 8.0 0.00 0.00 0.00 42 1014.1
20260503220010 62 285 5.0 7.0 0.00 0.00 0.00 40 1014.2
20260503215510 62 316 3.0 6.0 0.00 0.00 0.00 40 1014.2
20260503215010 62 277 3.0 8.0 0.00 0.00 0.00 40 1014.2
20260503214510 61 298 6.0 8.0 0.00 0.00 0.00 39 1014.2
20260503214009 61 268 5.0 9.0 0.00 0.00 0.00 41 1014.2
20260503213509 61 290 8.0 12.0 0.00 0.00 0.00 39 1014.2
20260503213009 62 289 8.0 12.0 0.00 0.00 0.00 42 1014.2
20260503212509 61 305 7.0 12.0 0.00 0.00 0.00 42 1014.1
20260503212009 61 290 6.0 10.0 0.00 0.00 0.00 41 1014.1
20260503211509 61 296 7.0 8.0 0.00 0.00 0.00 42 1014.1
20260503211009 61 282 6.0 9.0 0.00 0.00 0.00 42 1014.1
20260503210508 61 307 5.0 8.0 0.00 0.00 0.00 42 1014.1
20260503210008 61 272 6.0 6.0 0.00 0.00 0.00 42 1014.2
20260503205508 61 283 6.0 6.0 0.00 0.00 0.00 44 1014.2
20260503205008 61 297 7.0 9.0 0.00 0.00 0.00 40 1014.3
20260503204508 61 286 8.0 12.0 0.00 0.00 0.00 42 1014.3
20260503204008 61 299 7.0 9.0 0.00 0.00 0.00 45 1014.4
20260503203437 61 285 9.0 13.0 0.00 0.00 0.00 40 1014.4
20260503202937 60 283 7.0 12.0 0.00 0.00 0.00 45 1014.4
20260503202437 60 282 7.0 8.0 0.00 0.00 0.00 41 1014.4
20260503201937 60 289 7.0 8.0 0.00 0.00 0.00 41 1014.5
20260503201437 60 293 7.0 12.0 0.00 0.00 0.00 41 1014.5
20260503200937 60 287 8.0 12.0 0.00 0.00 0.00 42 1014.6
20260503200437 59 293 6.0 12.0 0.00 0.00 0.00 44 1014.6
20260503195936 60 283 9.0 13.0 0.00 0.00 0.00 43 1014.8
20260503195436 60 290 8.0 13.0 0.00 0.00 0.00 43 1014.8
20260503194936 59 295 5.0 8.0 0.00 0.00 0.00 46 1014.8
20260503194436 59 282 8.0 13.0 0.00 0.00 0.00 44 1014.9
20260503193936 59 283 6.0 13.0 0.00 0.00 0.00 46 1014.9
20260503193436 59 289 8.0 12.0 0.00 0.00 0.00 43 1014.9
20260503192935 59 287 7.0 12.0 0.00 0.00 0.00 44 1015.0
20260503192435 59 288 7.0 12.0 0.00 0.00 0.00 44 1015.0
20260503191935 59 299 7.0 12.0 0.00 0.00 0.00 44 1015.1
20260503191435 58 283 6.0 12.0 0.00 0.00 0.00 45 1015.2
20260503190935 58 293 8.0 13.0 0.00 0.00 0.00 42 1015.3
20260503190435 58 300 12.0 15.0 0.00 0.00 0.00 44 1015.3
20260503185935 58 285 8.0 16.0 0.00 0.00 0.00 46 1015.3
20260503185434 58 288 9.0 15.0 0.00 0.00 0.00 43 1015.4
20260503184934 58 303 8.0 12.0 0.00 0.00 0.00 45 1015.3
20260503184434 57 287 9.0 12.0 0.00 0.00 0.00 46 1015.5
20260503183934 57 285 12.0 15.0 0.00 0.00 0.00 45 1015.6
20260503183434 57 276 9.0 20.0 0.00 0.00 0.00 45 1015.6
20260503182934 57 295 7.0 13.0 0.00 0.00 0.00 45 1015.6
20260503182434 57 288 9.0 13.0 0.00 0.00 0.00 46 1015.6
20260503181933 57 287 12.0 18.0 0.00 0.00 0.00 44 1015.6
20260503181433 57 279 8.0 14.0 0.00 0.00 0.00 44 1015.8
20260503180933 57 285 10.0 17.0 0.00 0.00 0.00 45 1015.7
20260503180433 57 290 12.0 15.0 0.00 0.00 0.00 44 1015.8
20260503175933 57 321 5.0 12.0 0.00 0.00 0.00 47 1015.8
20260503175433 57 276 7.0 13.0 0.00 0.00 0.00 47 1015.8
20260503174932 56 308 12.0 14.0 0.00 0.00 0.00 43 1015.9
20260503174432 57 277 9.0 15.0 0.00 0.00 0.00 42 1015.9
20260503173932 56 305 7.0 10.0 0.00 0.00 0.00 41 1015.9
20260503173432 56 297 8.0 10.0 0.00 0.00 0.00 42 1016.0
20260503172932 56 309 5.0 12.0 0.00 0.00 0.00 42 1016.0
20260503172432 56 292 6.0 14.0 0.00 0.00 0.00 42 1016.0
20260503171932 56 286 9.0 14.0 0.00 0.00 0.00 46 1016.1
20260503171431 56 282 6.0 9.0 0.00 0.00 0.00 43 1016.1
20260503170931 56 278 8.0 12.0 0.00 0.00 0.00 45 1016.0
20260503170431 56 285 8.0 14.0 0.00 0.00 0.00 44 1016.0
20260503150928 53 314 7.0 12.0 0.00 0.00 0.00 51 1016.6
20260503150427 52 326 7.0 8.0 0.00 0.00 0.00 50 1016.6
20260503130924 49 316 8.0 14.0 0.00 0.00 0.00 60 1016.7
20260503130424 49 316 12.0 22.0 0.00 0.00 0.00 59 1016.5
20260503110420 45 319 12.0 16.0 0.00 0.00 0.00 67 1015.3